Terminal Aerodrome Forecast
Issued by NWS

Home | Current Version | Previous Version | Text Only | Print | Product List | Glossary On
Versions: 1 2 3 4 5 6 7 8 9 10 11 12 13 14 15 16 17 18 19 20 21 22 23
000
FTUS44 KBMX 222300
TAFANB
TAF
KANB 222326Z 2300/2324 VRB06KT P6SM VCTS SCT030CB BKN100
     FM230200 00000KT 6SM BR BKN120
     FM230800 00000KT 4SM BR BKN008
      TEMPO 2310/2312 2SM BR OVC005
     FM231530 21004KT P6SM SCT012 BKN025
     FM231900 25005KT P6SM VCTS BKN040CB=

USA.gov is the U.S. government's official web portal to all federal, state and local government web resources and services.